"Pseudo-MPEC" for P21vRVi

Created 2022 Aug 25 13:22:31 UT using Find_Orb

Click here for an explanation of pseudo-MPECs

 
 Astrometry: 
     P21vRVi* C2022 08 05q()%6U/_pWAstrometryI#redacted;#xZ:%c\%I+!;Vfed^'b/dF52
     P21vRVi  C2022 08 05FhTUx9%/bclick)f:c'@=E*HFEXf1v$l^here3V^V0nT#s=for@VF52
     P21vRVi  C2022 08 05*Zt1T(E^*F^bfo^Eav2r[h()B`V:3D`a/;;7:TAexplanation:8F52

Station data:
(F52) Pan-STARRS 2, Haleakala  (N20.707382 W156.255910)  US/Hawaii.
   Observers J. Bulger, T. Dukes, T. Lowe, A. Schultz, M. Willman. Measurers
   K. Chambers, S. Chastel, T. de Boer, L. Denneau, J. Fairlamb, H.
   Flewelling, M. Huber, C.-C. Lin, E. Magnier, Y. Ramanjooloo, R. Wainscoat,
   R. Weryk. 1.8-m Ritchey-Chrétien + CCD.

Orbital elements:  P21vRVi
   Perihelion 2022 May 29.12810 +/- 49.3 TT =  3:04:27 (JD 2459728.62810)
Epoch 2022 Aug  5.0 TT = JDT 2459796.5   Earth MOID: 0.2424   Ma: 0.0016
M  18.96622892 +/- 19               (J2000 ecliptic)          AutoNEOCP
n   0.27944154 +/- 0.26             Peri.  283.17692 +/- 80
a   2.31708551 +/- 1.44             Node   332.78952 +/- 57
e   0.4618241 +/- 0.251             Incl.    3.68197 +/- 3.0
P   3.53                   H 22.6   G  0.15   U 11.8  SR
q 1.24699946 +/- 0.432    Q 3.38717157 +/- 103
From 3 observations 2022 Aug. 5 (44.1 min); mean residual 0".12
Residuals in arcseconds: 
220805 F52  .03+  .15+    220805 F52  .05-  .23-    220805 F52  .02+  .08+    

Ephemerides (geocentric):
Date (UTC) HH   RA             Dec           delta  r     elong  mag " sig PA
---- --------  ------------   ------------  ------ ------ -----  --- --------
2022 08 25 13  20 20 41.699   -21 31 16.03  .56716 1.5297 150.4 23.2  42d 166
2022 08 25 14  20 20 42.860   -21 30 53.77  .56752 1.5299 150.3 23.2  42d 166
2022 08 25 15  20 20 44.024   -21 30 31.51  .56788 1.5302 150.3 23.2  42d 166
2022 08 25 16  20 20 45.190   -21 30 09.26  .56824 1.5304 150.3 23.2  42d 166
2022 08 25 17  20 20 46.360   -21 29 47.02  .56861 1.5306 150.2 23.2  42d 166
2022 08 25 18  20 20 47.532   -21 29 24.79  .56897 1.5308 150.2 23.2  42d 166
2022 08 25 19  20 20 48.707   -21 29 02.56  .56933 1.5310 150.2 23.2  42d 166
2022 08 25 20  20 20 49.885   -21 28 40.35  .56970 1.5313 150.1 23.3  43d 166
2022 08 25 21  20 20 51.066   -21 28 18.15  .57006 1.5315 150.1 23.3  43d 166
2022 08 25 22  20 20 52.250   -21 27 55.96  .57042 1.5317 150.0 23.3  43d 166
2022 08 25 23  20 20 53.437   -21 27 33.77  .57079 1.5319 150.0 23.3  43d 166
2022 08 26 00  20 20 54.626   -21 27 11.60  .57115 1.5322 150.0 23.3  43d 166
2022 08 26 01  20 20 55.818   -21 26 49.43  .57152 1.5324 149.9 23.3  43d 166
2022 08 26 02  20 20 57.013   -21 26 27.28  .57188 1.5326 149.9 23.3  43d 166
2022 08 26 03  20 20 58.211   -21 26 05.13  .57225 1.5328 149.9 23.3  43d 166
2022 08 26 04  20 20 59.412   -21 25 42.99  .57261 1.5331 149.8 23.3  43d 166
2022 08 26 05  20 21 00.616   -21 25 20.86  .57298 1.5333 149.8 23.3  43d 166
2022 08 26 06  20 21 01.822   -21 24 58.74  .57334 1.5335 149.8 23.3  43d 166
2022 08 26 07  20 21 03.031   -21 24 36.63  .57371 1.5337 149.7 23.3  43d 166
2022 08 26 08  20 21 04.244   -21 24 14.53  .57408 1.5340 149.7 23.3  43d 166
2022 08 26 09  20 21 05.459   -21 23 52.44  .57444 1.5342 149.7 23.3  43d 166
2022 08 26 10  20 21 06.676   -21 23 30.36  .57481 1.5344 149.6 23.3  43d 166
2022 08 26 11  20 21 07.897   -21 23 08.29  .57518 1.5346 149.6 23.3  43d 166
2022 08 26 12  20 21 09.121   -21 22 46.22  .57554 1.5349 149.6 23.3  43d 166
2022 08 26 13  20 21 10.347   -21 22 24.17  .57591 1.5351 149.5 23.3  43d 166
2022 08 26 14  20 21 11.576   -21 22 02.12  .57628 1.5353 149.5 23.3  43d 166
2022 08 26 15  20 21 12.808   -21 21 40.09  .57665 1.5355 149.5 23.3  43d 166
2022 08 26 16  20 21 14.043   -21 21 18.06  .57701 1.5357 149.4 23.3  43d 166
2022 08 26 17  20 21 15.281   -21 20 56.04  .57738 1.5360 149.4 23.3  43d 166
2022 08 26 18  20 21 16.521   -21 20 34.03  .57775 1.5362 149.4 23.3  43d 166
2022 08 26 19  20 21 17.764   -21 20 12.03  .57812 1.5364 149.3 23.3  43d 166
2022 08 26 20  20 21 19.011   -21 19 50.04  .57849 1.5366 149.3 23.3  43d 166
2022 08 26 21  20 21 20.260   -21 19 28.06  .57886 1.5369 149.3 23.3  43d 166
2022 08 26 22  20 21 21.511   -21 19 06.08  .57923 1.5371 149.2 23.3  43d 166
2022 08 26 23  20 21 22.766   -21 18 44.12  .57960 1.5373 149.2 23.3  43d 166
2022 08 27 00  20 21 24.024   -21 18 22.16  .57997 1.5375 149.2 23.3  43d 166
2022 08 27 01  20 21 25.284   -21 18 00.22  .58034 1.5378 149.1 23.3  43d 166
2022 08 27 02  20 21 26.547   -21 17 38.28  .58071 1.5380 149.1 23.3  43d 166
2022 08 27 03  20 21 27.813   -21 17 16.35  .58108 1.5382 149.1 23.3  43d 166
2022 08 27 04  20 21 29.082   -21 16 54.43  .58145 1.5384 149.0 23.3  43d 166
2022 08 27 05  20 21 30.353   -21 16 32.52  .58182 1.5387 149.0 23.3  43d 166
2022 08 27 06  20 21 31.628   -21 16 10.62  .58219 1.5389 149.0 23.3  43d 166
2022 08 27 07  20 21 32.905   -21 15 48.73  .58257 1.5391 148.9 23.3  43d 166
2022 08 27 08  20 21 34.185   -21 15 26.84  .58294 1.5393 148.9 23.3  43d 166
2022 08 27 09  20 21 35.468   -21 15 04.97  .58331 1.5396 148.9 23.3  43d 166
2022 08 27 10  20 21 36.754   -21 14 43.10  .58368 1.5398 148.8 23.3  43d 166
2022 08 27 11  20 21 38.042   -21 14 21.24  .58406 1.5400 148.8 23.3  43d 166
2022 08 27 12  20 21 39.334   -21 13 59.39  .58443 1.5402 148.8 23.3  43d 166